Location: Bodest
(46.3000°N, 22.5667°E)
Time: 00:04:17
(UTC+00:00)

Cosmos 1892 Rocket - Pass Details

Date: 16 October 2021
Orbit: 605 x 634 km, 82.5° (Epoch: 26 November)

Event Time Altitude Azimuth Distance (km) Brightness Sun altitude
Rises 17:14:55 0° 349° (NNW) 2,940 7.2 -16.9°
Reaches altitude 10° 17:17:10 10° 347° (NNW) 2,024 6.4 -17.3°
Maximum altitude 17:21:38 72° 264° (W) 666 3.8 -18.1°
Drops below altitude 10° 17:26:03 10° 180° (S) 1,994 6.1 -18.8°
Sets 17:28:15 0° 178° (S) 2,891 6.9 -19.2°
